SCP
0 0 0 0 0 0 0 0 0 0 0 0 0 0 0 0 0 0 0 0 0 0 0 0 0 0 0 0 0 0 0 0 0 0 0 0 0 0 0 0 0 0 0 0
0 0 0 0 0 0 0 0 0 0 0 0 0 0 0 0 0 0 0 0 0 0 0 0 0 0 0 0 0 0 0 0 0 0 0 0 0 0 0 0 0 0 0 0
0 0 0 0 0 0 0 0 0 0 0 0 0 0 0 0 0 0 0 0 0 0 0 0 0 0 0 0 0 0 0 0 0 0 0 0 0 0 0 0 0 0 0 0
0 0 0 0 0 0 0 0 0 0 0 0 0 0 0 0 0 0 0 0 0 0 0 0 0 0 0 0 0 0 0 0 0 0 0 0 0 0 0 0 0 0 0 0
0 0 0 0 0 0 0 0 0 0 0 0 0 0 0 0 0 0 0 0 0 0 0 0 0 0 0 0 0 0 0 0 0 0 0 0 0 0 0 0 0 0 0 0
0 0 0 0 0 0 0 0 0 0 0 0 0 0 0 0 0 0 0 0 0 0 0 0 0 0 0 0 0 0 0 0 0 0 0 0 0 0 0 0 0 0 0 0
0 0 0 0 0 0 0 0 0 0 0 0 0 0 0 0 0 0 0 0 0 0 0 0 0 0 0 0 0 0 0 0 0 0 0 0 0 0 0 0 0 0 0 0
0 0 0 0 0 0 0 0 0 0 0 0 0 0 0 0 0 0 0 0 0 0 0 0 0 0 0 0 0 0 0 0 0 0 0 0 0 0 0 0 0 0 0 0
0 0 0 0 0 0 0 0 0 0 0 0 0 0 0 0 0 0 0 0 0 0 0 0 0 0 0 0 0 0 0 0 0 0 0 0 0 0 0 0 0 0 0 0
0 0 0 0 0 0 0 0 0 0 0 0 0 0 0 0 0 0 0 0 0 0 0 0 0 0 0 0 0 0 0 0 0 0 0 0 0 0 0 0 0 0 0 0
0 0 0 0 0 0 0 0 0 0 0 0 0 0 0 0 0 0 0 0 0 0 0 0 0 0 0 0 0 0 0 0 0 0 0 0 0 0 0 0 0 0 0 0
0 0 0 0 0 0 0 0 0 0 0 0 0 0 0 0 0 0 0 0 0 0 0 0 0 0 0 0 0 0 0 0 0 0 0 0 0 0 0 0 0 0 0 0
0 0 0 0 0 0 0 0 0 0 0 0 0 0 0 0 0 0 0 0 0 0 0 0 0 0 0 0 0 0 0 0 0 0 0 0 0 0 0 0 0 0 0 0
0 0 0 0 0 0 0 0 0 0 0 0 0 0 0 0 0 0 0 0 0 0 0 0 0 0 0 0 0 0 0 0 0 0 0 0 0 0 0 0 0 0 0 0
0 0 0 0 0 0 0 0 0 0 0 0 0 0 0 0 0 0 0 0 0 0 0 0 0 0 0 0 0 0 0 0 0 0 0 0 0 0 0 0 0 0 0 0
0 0 0 0 0 0 0 0 0 0 0 0 0 0 0 0 0 0 0 0 0 0 0 0 0 0 0 0 0 0 0 0 0 0 0 0 0 0 0 0 0 0 0 0
0 0 0 0 0 0 0 0 0 0 0 0 0 0 0 0 0 0 0 0 0 0 0 0 0 0 0 0 0 0 0 0 0 0 0 0 0 0 0 0 0 0 0 0
0 0 0 0 0 0 0 0 0 0 0 0 0 0 0 0 0 0 0 0 0 0 0 0 0 0 0 0 0 0 0 0 0 0 0 0 0 0 0 0 0 0 0 0
0 0 0 0 0 0 0 0 0 0 0 0 0 0 0 0 0 0 0 0 0 0 0 0 0 0 0 0 0 0 0 0 0 0 0 0 0 0 0 0 0 0 0 0
0 0 0 0 0 0 0 0 0 0 0 0 0 0 0 0 0 0 0 0 0 0 0 0 0 0 0 0 0 0 0 0 0 0 0 0 0 0 0 0 0 0 0 0
0 0 0 0 0 0 0 0 0 0 0 0 0 0 0 0 0 0 0 0 0 0 0 0 0 0 0 0 0 0 0 0 0 0 0 0 0 0 0 0 0 0 0 0
0 0 0 0 0 0 0 0 0 0 0 0 0 0 0 0 0 0 0 0 0 0 0 0 0 0 0 0 0 0 0 0 0 0 0 0 0 0 0 0 0 0 0 0
0 0 0 0 0 0 0 0 0 0 0 0 0 0 0 0 0 0 0 0 0 0 0 0 0 0 0 0 0 0 0 0 0 0 0 0 0 0 0 0 0 0 0 0
0 0 0 0 0 0 0 0 0 0 0 0 0 0 0 0 0 0 0 0 0 0 0 0 0 0 0 0 0 0 0 0 0 0 0 0 0 0 0 0 0 0 0 0
0 0 0 0 0 0 0 0 0 0 0 0 0 0 0 0 0 0 0 0 0 0 0 0 0 0 0 0 0 0 0 0 0 0 0 0 0 0 0 0 0 0 0 0
0 0 0 0 0 0 0 0 0 0 0 0 0 0 0 0 0 0 0 0 0 0 0 0 0 0 0 0 0 0 0 0 0 0 0 0 0 0 0 0 0 0 0 0
Wind_Speed
4 3 1 1 2 3 3 4 2 1 1 1 2 3 4 5 3 2 3 4 4 4 4 4 3 4 3 3 4 5 4 3 3 2 2 2 2 2 2 2 3 3 4 4
3 2 2 2 2 3 3 4 2 0 0 2 3 3 4 6 5 3 2 3 3 4 4 4 3 3 3 3 3 3 3 3 3 2 1 2 2 2 2 2 3 3 3 4
2 1 2 2 2 2 3 3 3 2 3 5 5 5 5 5 5 4 2 3 4 4 4 4 3 3 3 3 2 2 3 3 3 3 2 2 2 2 2 2 2 3 3 4
2 1 1 2 2 3 3 3 4 5 5 4 5 3 3 6 5 4 2 2 3 4 4 5 4 4 3 3 2 2 2 3 3 3 3 3 2 2 1 1 1 2 3 3
2 1 2 3 2 3 3 3 6 8 7 7 7 5 3 5 5 5 4 3 3 4 5 5 5 4 3 3 2 2 2 3 3 2 2 2 2 1 1 1 2 2 2 3
3 1 2 3 2 3 4 5 8 8 6 7 7 5 2 2 4 4 4 4 4 4 5 5 5 5 4 3 2 2 3 2 2 2 1 2 2 1 1 1 1 1 1 1
5 5 2 2 3 3 4 4 3 4 5 4 2 3 2 3 4 4 4 3 4 4 4 5 5 4 4 3 1 1 1 1 1 1 1 1 1 2 1 1 1 1 1 1
4 4 4 3 2 3 5 4 3 4 3 2 3 2 4 5 5 5 4 4 5 5 5 4 4 3 3 3 2 1 1 0 0 1 1 0 0 1 1 1 1 1 0 0
4 1 3 3 3 4 5 4 5 6 8 5 3 2 4 4 5 4 4 4 4 5 4 4 4 3 3 2 1 0 1 1 1 1 1 1 0 0 0 0 1 1 0 0
6 3 3 2 4 5 5 6 4 4 4 4 4 3 2 5 5 4 3 3 4 4 4 4 3 3 2 2 1 1 1 1 1 1 1 1 1 0 0 0 1 0 0 1
6 5 4 4 6 5 5 5 5 4 5 4 4 0 3 5 4 3 2 3 4 4 4 3 2 2 2 3 2 1 1 1 1 1 1 1 1 1 1 1 1 1 1 1
4 4 5 7 3 3 4 5 5 4 5 5 4 0 5 6 5 3 2 4 4 4 3 3 2 2 3 3 2 2 2 2 1 0 1 1 1 1 1 0 0 0 1 1
4 4 5 4 3 4 5 5 5 5 5 6 6 2 4 5 4 3 2 3 3 3 3 2 2 2 2 2 2 2 2 2 1 1 0 1 1 1 1 0 0 0 0 1
3 6 7 6 5 3 6 6 6 6 6 7 7 3 1 1 2 2 2 2 2 3 2 2 2 1 2 2 2 2 2 2 1 1 0 0 0 1 1 0 0 0 0 1
5 8 8 9 9 9 9 9 9 9 9 9 8 6 2 0 1 0 1 2 2 2 2 2 1 1 2 2 2 2 2 2 1 1 1 1 1 1 1 0 1 1 1 1
6 8 8 10 10 9 11 10 10 10 9 9 8 6 1 1 1 1 1 1 1 2 2 2 1 1 1 2 2 2 2 2 2 1 1 1 1 1 1 0 0 1 1 1
6 7 8 8 8 9 10 8 7 6 5 5 6 4 1 1 1 1 1 0 1 1 2 1 1 1 1 2 2 2 2 3 2 2 1 1 1 2 2 0 1 0 0 1
8 7 5 7 7 10 3 2 2 3 3 3 3 1 1 1 1 1 2 1 2 2 3 2 2 1 1 1 1 2 2 2 3 2 2 2 1 1 2 0 1 0 1 1
7 6 5 5 7 7 4 1 0 2 2 2 2 2 3 3 2 2 4 4 3 3 2 2 1 1 1 1 1 1 2 2 2 3 2 2 2 1 1 0 0 1 1 1
6 6 6 5 6 6 1 2 2 2 2 3 2 2 2 2 1 1 3 4 4 4 3 2 2 1 2 2 1 1 1 2 2 3 3 2 2 1 1 1 0 1 1 0
6 6 7 8 7 3 1 2 1 2 1 3 2 2 1 1 1 2 3 3 4 3 3 3 2 1 1 2 1 1 2 2 2 3 3 2 2 1 1 0 1 1 1 1
5 4 6 6 7 3 3 1 1 2 3 2 2 2 2 2 3 3 2 2 2 2 2 3 2 1 1 2 2 2 2 2 2 2 2 2 2 2 1 1 2 2 1 1
3 2 2 2 1 2 2 2 2 3 3 3 3 3 3 2 2 2 2 2 2 2 2 2 2 2 1 1 2 2 2 2 2 2 2 1 2 2 1 2 2 2 1 1
3 3 3 3 2 1 1 2 3 3 3 3 3 3 3 2 2 2 2 1 1 1 2 2 2 2 1 1 2 2 2 2 1 2 2 2 2 2 2 1 2 2 1 1
4 3 5 6 4 2 1 2 3 2 2 2 2 2 2 1 1 1 1 1 1 1 1 2 2 2 2 2 2 2 1 1 1 1 2 1 1 1 1 2 2 2 2 2
5 5 5 4 3 3 3 3 3 2 1 1 1 1 0 0 1 1 1 1 1 1 1 2 2 2 1 2 2 2 1 1 1 1 1 1 1 1 1 1 2 3 3 4
Wind_Direction
207 221 223 235 248 256 277 279 274 284 125 213 220 207 189 170 172 175 149 144 141 138 125 109 104 103 88 75 75 79 89 88 78 56 60 59 50 52 47 40 34 16 13 24
219 210 248 243 242 246 263 265 277 336 200 267 264 245 201 157 173 169 169 141 138 132 124 120 118 104 100 83 68 90 87 91 89 70 71 86 65 53 56 27 21 13 19 20
229 81 295 268 252 271 269 289 289 285 281 254 254 244 198 166 159 149 141 135 130 123 122 126 121 110 103 96 81 69 89 95 100 90 64 63 58 47 43 27 17 5 21 24
265 157 276 277 292 295 285 313 288 264 259 257 246 263 196 166 157 155 153 136 125 125 116 110 97 86 84 89 85 73 72 81 89 104 91 91 82 63 33 35 22 5 18 21
258 267 261 273 300 301 310 303 276 269 264 267 244 245 217 162 166 164 161 146 126 119 111 110 105 98 83 61 58 62 68 70 76 86 106 102 91 82 54 52 49 28 12 11
243 230 259 289 283 271 284 271 260 251 252 255 240 235 205 171 165 155 140 133 123 110 108 103 102 96 83 66 47 47 57 61 72 89 113 127 121 119 91 59 70 46 22 1
216 198 193 270 268 232 257 276 270 232 224 240 206 213 168 112 100 107 113 111 104 100 103 102 98 103 98 82 55 67 70 58 89 114 127 186 158 148 134 103 82 58 53 4
242 208 177 201 263 283 263 267 282 290 275 288 265 216 120 109 96 96 106 111 104 99 94 98 103 99 102 99 75 54 89 87 103 169 170 136 65 139 140 139 116 106 84 340
295 242 154 186 251 272 265 260 272 283 285 276 231 140 124 129 113 103 102 100 98 101 97 95 95 86 86 98 86 40 150 122 60 32 64 138 158 177 147 145 129 130 106 20
305 285 209 189 230 238 268 291 282 270 282 279 257 218 155 147 137 123 115 105 98 94 91 90 90 85 76 80 98 51 72 87 74 63 22 27 28 19 78 77 66 81 81 50
288 269 224 214 229 240 236 257 273 281 277 278 283 15 93 128 122 111 107 107 100 96 87 66 70 75 75 70 62 55 31 54 50 42 26 43 37 342 259 126 77 49 40 56
288 287 249 232 230 254 250 258 267 272 282 286 285 292 102 109 99 97 100 100 91 87 89 90 76 77 68 63 53 37 28 32 39 351 9 38 31 334 292 97 85 62 32 24
320 275 263 218 195 204 236 240 262 275 276 271 269 211 129 117 98 90 89 102 108 100 92 82 70 60 61 56 44 31 24 27 2 337 358 27 10 334 274 232 33 63 54 35
295 269 265 275 292 271 252 257 262 267 265 271 273 269 215 97 75 70 97 111 112 113 97 75 66 56 48 39 32 20 12 14 2 350 12 4 347 329 316 341 61 336 57 66
254 266 267 275 284 281 274 267 262 259 265 272 282 286 289 92 82 36 81 120 122 112 107 84 62 39 47 30 17 10 3 358 351 358 16 347 336 330 331 0 25 30 43 26
249 269 277 274 272 270 267 262 258 259 265 270 278 282 307 93 94 50 15 90 136 119 97 81 70 37 41 32 13 356 354 345 345 4 337 354 355 353 343 289 72 25 32 39
246 267 279 275 274 273 259 253 248 249 264 273 276 289 352 327 302 18 4 30 115 94 93 69 27 17 24 19 11 347 349 356 346 337 340 355 8 356 315 251 118 110 73 76
254 259 266 274 273 258 257 323 269 251 281 294 305 354 348 328 343 62 47 47 60 65 69 52 24 12 18 31 7 350 352 353 345 340 345 340 349 337 318 18 126 124 72 84
242 248 258 260 265 266 253 242 268 259 267 349 30 34 14 16 14 66 47 46 51 60 60 50 32 8 1 4 18 359 342 346 346 342 339 354 347 320 316 301 191 137 95 76
225 235 247 253 259 264 324 64 36 321 247 37 53 56 28 22 331 20 37 41 36 41 44 40 31 29 10 354 9 12 352 358 343 338 341 352 343 314 314 287 258 74 87 84
213 226 236 247 254 257 52 32 11 255 337 30 22 26 3 338 25 64 51 42 37 33 28 19 18 35 16 356 2 24 22 350 340 351 1 2 357 355 1 91 66 62 61 60
227 233 235 241 246 240 89 52 23 3 10 24 34 32 8 22 65 67 59 44 45 26 20 11 8 21 17 9 14 29 17 357 1 2 2 2 4 4 33 78 85 78 70 88
242 268 273 270 284 68 95 55 25 10 2 15 27 27 30 49 71 67 58 37 27 21 10 11 360 356 6 19 20 12 6 16 13 9 3 5 8 20 45 84 91 92 80 75
277 308 289 282 261 317 4 45 43 21 9 21 35 33 44 46 43 43 36 22 17 9 3 357 334 325 334 8 21 11 7 15 16 6 2 14 23 22 29 65 91 91 88 86
292 293 280 275 285 310 6 10 4 14 31 27 37 37 36 39 28 2 345 350 3 354 344 327 316 327 346 1 15 12 13 2 356 2 356 9 29 40 36 53 63 83 82 80
263 263 256 265 287 293 302 331 338 342 5 347 351 355 351 272 264 309 318 321 328 313 311 315 327 330 337 350 354 8 12 359 345 357 357 12 62 57 59 68 52 51 66 65